Date String (YYYY-MM-DD hh:mm:ss) UTC,Instrument flags,Ambient pressure (hPa),Sample flow (lpm),Bypass flow (lpm),Sample temperature (°C),Ambient temperature (°C),ASC tube jacket temperature (°C),LED temperature (°C),Box temperature (°C),Sample RH (%),Span deviation,Mass concentration (μg/m³),Mass concentration (μg/m³),Mass concentration (μg/m³)
DateTimeUTC,F1_M11,P_M11,Q1_M11,Q2_M11,T1_M11,T2_M11,T3_M11,T4_M11,T5_M11,U1_M11,ZSPAN_M11,X0_M11,X2_M11,X1_M11
2022-02-14 07:00:00,,0829.3,4.99,0.00,23.3,22.6,00.0,32.3,25.1,05.9,0000.0,0001.95,0001.01,0000.64
2022-02-14 07:01:00,,0829.3,5.00,0.00,23.3,22.6,00.0,32.3,25.1,05.8,0000.0,0002.30,0001.02,0000.65
2022-02-14 07:02:00,,0829.4,5.01,0.00,23.3,22.6,00.0,32.3,25.1,05.8,0000.0,0002.24,0001.02,0000.65
2022-02-14 07:03:00,,0829.6,5.00,0.00,23.4,22.6,00.0,32.3,25.1,05.8,0000.0,0002.31,0001.06,0000.66
2022-02-14 07:04:00,,0829.4,4.99,0.00,23.4,22.6,00.0,32.3,25.1,05.8,0000.0,0002.28,0001.06,0000.67
2022-02-14 07:05:00,,0829.3,5.00,0.00,23.4,22.7,00.0,32.3,25.1,05.8,0000.0,0002.33,0001.04,0000.67
2022-02-14 07:06:00,,0829.2,5.00,0.00,23.4,22.6,00.0,32.3,25.1,05.8,0000.0,0002.33,0001.03,0000.67
2022-02-14 07:07:00,,0829.2,4.99,0.00,23.4,22.6,00.0,32.3,25.1,05.9,0000.0,0002.43,0001.05,0000.67
2022-02-14 07:08:00,,0829.4,5.01,0.00,23.4,22.6,00.0,32.3,25.1,05.9,0000.0,0002.56,0001.10,0000.68
2022-02-14 07:09:00,,0829.2,4.99,0.00,23.3,22.6,00.0,32.3,25.0,06.1,0000.0,0002.59,0001.12,0000.70
2022-02-14 07:10:00,,0829.2,4.99,0.00,23.3,22.6,00.0,32.3,25.1,05.9,0000.0,0002.48,0001.10,0000.71
2022-02-14 07:11:00,,0829.2,5.00,0.00,23.3,22.6,00.0,32.3,25.1,05.9,0000.0,0002.46,0001.09,0000.71
2022-02-14 07:12:00,,0829.2,5.01,0.00,23.3,22.6,00.0,32.3,25.1,05.9,0000.0,0002.21,0001.10,0000.71
2022-02-14 07:13:00,,0829.2,4.99,0.00,23.3,22.6,00.0,32.3,25.1,05.9,0000.0,0002.13,0001.10,0000.71
2022-02-14 07:14:00,,0829.2,4.99,0.00,23.3,22.6,00.0,32.3,25.1,05.9,0000.0,0002.04,0001.05,0000.69
2022-02-14 07:15:00,,0829.2,5.00,0.00,23.4,22.6,00.0,32.3,25.1,06.1,0000.0,0001.81,0001.01,0000.67
2022-02-14 07:16:00,,0829.2,4.99,0.00,23.3,22.6,00.0,32.3,25.1,06.0,0000.0,0002.12,0001.04,0000.67
2022-02-14 07:17:00,,0829.2,5.02,0.00,23.3,22.6,00.0,32.3,25.1,06.1,0000.0,0002.68,0001.04,0000.67
2022-02-14 07:18:00,,0829.1,5.00,0.00,23.3,22.6,00.0,32.3,25.1,05.9,0000.0,0002.62,0001.01,0000.65
2022-02-14 07:19:00,,0829.1,5.00,0.00,23.3,22.6,00.0,32.3,25.1,05.8,0000.0,0002.57,0001.01,0000.65
2022-02-14 07:20:00,,0829.0,4.99,0.00,23.3,22.6,00.0,32.3,25.1,05.7,0000.0,0002.61,0001.00,0000.64
2022-02-14 07:21:00,,0829.1,5.01,0.00,23.3,22.6,00.0,32.3,25.1,05.6,0000.0,0002.71,0000.99,0000.62
2022-02-14 07:22:00,,0829.1,4.99,0.00,23.3,22.6,00.0,32.3,25.1,05.6,0000.0,0002.68,0000.98,0000.62
2022-02-14 07:23:00,,0829.2,5.00,0.00,23.3,22.6,00.0,32.3,25.0,05.6,0000.0,0002.61,0000.95,0000.61
2022-02-14 07:24:00,,0829.2,4.99,0.00,23.3,22.6,00.0,32.3,25.0,05.9,0000.0,0002.59,0000.95,0000.60
2022-02-14 07:25:00,,0829.2,5.00,0.00,23.3,22.6,00.0,32.3,25.0,05.7,0000.0,0002.57,0000.96,0000.62
2022-02-14 07:26:00,,0829.1,5.02,0.00,23.3,22.6,00.0,32.3,25.0,05.7,0000.0,0002.58,0000.96,0000.63
2022-02-14 07:27:00,,0829.1,5.00,0.00,23.3,22.6,00.0,32.3,25.0,05.7,0000.0,0002.45,0000.97,0000.65
2022-02-14 07:28:00,,0829.1,4.98,0.00,23.3,22.6,00.0,32.3,25.1,05.7,0000.0,0001.70,0000.95,0000.64
2022-02-14 07:29:00,,0829.1,5.00,0.00,23.3,22.6,00.0,32.3,25.1,05.7,0000.0,0001.71,0000.95,0000.65
2022-02-14 07:30:00,,0829.1,5.00,0.00,23.3,22.6,00.0,32.3,25.1,05.6,0000.0,0001.72,0000.92,0000.64
2022-02-14 07:31:00,,0829.1,5.01,0.00,23.3,22.6,00.0,32.3,25.1,05.6,0000.0,0001.63,0000.89,0000.64
2022-02-14 07:32:00,,0829.1,4.99,0.00,23.3,22.6,00.0,32.3,25.1,05.8,0000.0,0001.50,0000.87,0000.63
2022-02-14 07:33:00,,0829.1,5.00,0.00,23.3,22.6,00.0,32.3,25.1,05.8,0000.0,0001.50,0000.88,0000.63
2022-02-14 07:34:00,,0829.0,5.00,0.00,23.3,22.6,00.0,32.3,25.1,05.6,0000.0,0001.56,0000.90,0000.63
2022-02-14 07:35:00,,0829.0,4.99,0.00,23.3,22.6,00.0,32.3,25.1,05.6,0000.0,0001.54,0000.90,0000.63
2022-02-14 07:36:00,,0829.0,5.01,0.00,23.3,22.6,00.0,32.3,25.1,05.6,0000.0,0001.55,0000.89,0000.62
2022-02-14 07:37:00,,0828.9,5.00,0.00,23.3,22.6,00.0,32.3,25.1,05.6,0000.0,0001.56,0000.88,0000.61
2022-02-14 07:38:00,,0828.9,4.99,0.00,23.3,22.6,00.0,32.3,25.1,05.6,0000.0,0001.61,0000.86,0000.59
2022-02-14 07:39:00,,0829.0,5.00,0.00,23.3,22.6,00.0,32.3,25.1,05.6,0000.0,0001.65,0000.87,0000.58
2022-02-14 07:40:00,,0828.9,4.99,0.00,23.3,22.6,00.0,32.3,25.1,05.6,0000.0,0001.65,0000.87,0000.57
2022-02-14 07:41:00,,0828.9,5.01,0.00,23.3,22.6,00.0,32.3,25.1,05.6,0000.0,0001.62,0000.90,0000.58
2022-02-14 07:42:00,,0828.8,5.01,0.00,23.3,22.6,00.0,32.3,25.1,05.6,0000.0,0001.73,0000.93,0000.59
2022-02-14 07:43:00,,0828.8,5.00,0.00,23.4,22.6,00.0,32.3,25.1,05.6,0000.0,0001.71,0000.92,0000.59
2022-02-14 07:44:00,,0828.8,4.99,0.00,23.4,22.6,00.0,32.3,25.1,05.6,0000.0,0001.76,0000.93,0000.59
2022-02-14 07:45:00,,0829.0,5.01,0.00,23.4,22.6,00.0,32.3,25.1,05.6,0000.0,0002.38,0000.92,0000.59
2022-02-14 07:46:00,,0828.9,5.00,0.00,23.3,22.6,00.0,32.3,25.1,05.6,0000.0,0002.94,0000.95,0000.59
2022-02-14 07:47:00,,0828.9,5.00,0.00,23.3,22.6,00.0,32.3,25.1,05.6,0000.0,0002.95,0000.96,0000.59
2022-02-14 07:48:00,,0828.9,5.01,0.00,23.3,22.6,00.0,32.3,25.1,05.6,0000.0,0003.01,0000.98,0000.60
2022-02-14 07:49:00,,0829.2,4.99,0.00,23.3,22.6,00.0,32.3,25.1,05.7,0000.0,0002.95,0000.99,0000.61
2022-02-14 07:50:00,,0829.0,4.99,0.00,23.3,22.6,00.0,32.3,25.0,05.7,0000.0,0002.89,0001.00,0000.61
2022-02-14 07:51:00,,0829.1,5.01,0.00,23.3,22.5,00.0,32.3,25.0,05.7,0000.0,0002.90,0001.00,0000.61
2022-02-14 07:52:00,,0829.0,4.99,0.00,23.3,22.5,00.0,32.3,25.0,05.6,0000.0,0002.79,0000.95,0000.60
2022-02-14 07:53:00,,0828.9,5.00,0.00,23.3,22.5,00.0,32.3,25.0,05.5,0000.0,0002.72,0000.94,0000.59
2022-02-14 07:54:00,,0828.9,5.01,0.00,23.3,22.5,00.0,32.3,25.0,05.6,0000.0,0002.84,0000.97,0000.59
2022-02-14 07:55:00,,0828.9,4.99,0.00,23.2,22.5,00.0,32.3,25.0,05.5,0000.0,0002.77,0000.94,0000.59
2022-02-14 07:56:00,,0828.9,5.01,0.00,23.2,22.5,00.0,32.2,25.0,05.4,0000.0,0002.13,0000.94,0000.58
2022-02-14 07:57:00,,0828.9,5.00,0.00,23.2,22.5,00.0,32.2,25.0,05.4,0000.0,0001.67,0000.92,0000.58
2022-02-14 07:58:00,,0828.9,5.00,0.00,23.2,22.4,00.0,32.2,25.0,05.3,0000.0,0001.81,0000.92,0000.57
2022-02-14 07:59:00,,0828.9,5.02,0.00,23.2,22.4,00.0,32.2,24.9,05.5,0000.0,0001.89,0000.92,0000.57
